LUCAS (JDRS-1)

Last updated on Tue Sep 22 2026 00:03:15 GMT+0000 (Coordinated Universal Time)

1 47202U 20089A 26264.43577044 -.00000240 00000+0 00000+0 0 9993 2 47202 0.0338 283.7378 0002189 268.9791 55.2854 1.00271417 21387
UTC large
Height (km)
Speed (km/s)
/
Latitude / Longitude
Inclination (degrees)
Orbital Period (minutes)
Azimuth
Elevation
Range (km)
Doppler Factor

Next 0 passes for location: London (51.5072 / 0.1276)

No passes found over London.
LUCAS (JDRS-1)